This is the latest recevied weather packets stored in our database for station/object K1WJY. If no packets are shown the sender has not sent any weather packets the latest 10 day(s).
| Time | Temp. | Humidity | Pressure | Rain* | Wind** | Luminosity | Snow |
|---|---|---|---|---|---|---|---|
| 1788009015 | 20° C | 66% | 1023.3 hPa | 0 mm | - | 459 W/m² | - |
| 1788008711 | 20° C | 65% | 1023.3 hPa | 0 mm | - | 435 W/m² | - |
| 1788008409 | 20° C | 68% | 1023.2 hPa | 0 mm | - | 421 W/m² | - |
| 1788008107 | 20° C | 67% | 1023.1 hPa | 0 mm | - | 391 W/m² | - |
| 1788007806 | 19.44° C | 68% | 1023.3 hPa | 0 mm | - | 370 W/m² | - |
| 1788007506 | 20° C | 70% | 1023.1 hPa | 0 mm | - | 344 W/m² | - |
| 1788007206 | 19.44° C | 70% | 1023.2 hPa | 0 mm | - | 326 W/m² | - |
| 1788006905 | 18.89° C | 72% | 1022.9 hPa | 0 mm | - | 315 W/m² | - |
| 1788006604 | 19.44° C | 73% | 1022.9 hPa | 0 mm | - | 299 W/m² | - |
| 1788006299 | 18.89° C | 73% | 1023.1 hPa | 0 mm | - | 283 W/m² | - |
| 1788005998 | 18.89° C | 74% | 1023.3 hPa | 0 mm | - | 263 W/m² | - |
| 1788005693 | 18.33° C | 76% | 1023.2 hPa | 0 mm | - | 254 W/m² | - |
| 1788005393 | 18.33° C | 78% | 1023.1 hPa | 0 mm | - | 244 W/m² | - |
| 1788005092 | 18.33° C | 78% | 1023.2 hPa | 0 mm | - | 234 W/m² | - |
| 1788004790 | 17.22° C | 81% | 1023 hPa | 0 mm | - | 192 W/m² | - |
| 1788004485 | 17.22° C | 81% | 1023.1 hPa | 0 mm | - | 192 W/m² | - |
| 1788004185 | 17.22° C | 80% | 1022.9 hPa | 0 mm | - | 184 W/m² | - |
| 1788003884 | 17.22° C | 82% | 1023 hPa | 0 mm | - | 170 W/m² | - |
| 1788003578 | 16.67° C | 83% | 1023.1 hPa | 0 mm | - | 161 W/m² | - |
| 1788003274 | 15.56° C | 85% | 1022.9 hPa | 0 mm | - | 140 W/m² | - |
| 1788002974 | 15.56° C | 85% | 1023 hPa | 0 mm | - | 45 W/m² | - |
| 1788002674 | 15.56° C | 86% | 1023 hPa | 0 mm | - | 58 W/m² | - |
| 1788002370 | 14.44° C | 88% | 1022.8 hPa | 0 mm | - | 52 W/m² | - |
| 1788002065 | 13.89° C | 90% | 1022.7 hPa | 0 mm | - | 48 W/m² | - |
| 1788001764 | 13.33° C | 91% | 1022.8 hPa | 0 mm | - | 42 W/m² | - |
* Rain latest hour (hover to see other rain measurements)
** Current wind speed in m/s (hover to see current wind gust speed)